sat.trackr.live / text

‹ back to catalog

STARLINK-4104

NORAD 53163 · 2022-083AH

PAYLOAD ACTIVE UNKNOWN

§ Identity

Operator
Country
US
Launch date
2022-07-17
Launch site
AFETR
Launch vehicle
Mass (kg)
RCS (m²)

Purposes: comms

External: N2YO · Heavens-Above · Gunter

§ Orbital elements

Epoch: 2026-09-19T22:38:47.234400Z

Period
93.85 min
Inclination
53.1608°
Eccentricity
0.0001103
Mean motion
15.34374618 rev/d
Perigee alt
462.0 km
Apogee alt
463.5 km
Semi-major
6,840.9 km
B*
-7.4599e-5
RAAN
6.2079°
Arg perigee
87.2229°
Mean anomaly
272.8900°
Rev number
23,076

§ Raw data

STARLINK-41041 53163U 22083AH  26262.94360225 -.00002893  00000+0 -74599-4 0  99932 53163  53.1608   6.2079 0001103  87.2229 272.8900 15.34374618230760

JSON: /api/v1/satellites/53163 · /tle

For live sub-satellite position, see the globe view (requires WebGL).

§ Visibility from observer

Set your observer location to see the next 7 days of passes ≥ 10°. The values pass through the URL so the page stays shareable.

No JS? Fill the form by hand. The geolocation button needs JavaScript.